User: anonymous   Login
Location: Montr�al
(45.5000°N, 73.5830°W)
Time: 08:48:47
(UTC-05:00)
Language:

Cosmos 2369 - Orbit

View from above orbital plane
View from above orbital plane
View from above satellite
View from above satellite

Ground track
Ground track

The orbit data is extracted from the following two-line orbital elements,

1 26069U 00006A   16345.18226043  .00000365  00000-0  21977-3 0  9997
2 26069  70.9959  35.0032 0010796 166.0257 194.1165 14.13340236869419
Epoch (UTC): 10 December 2016 04:22:27
Eccentricity: 0.0010796
inclination: 70.9959°
perigee height: 840 km
apogee height: 856 km
right ascension of ascending node: 35.0032°
argument of perigee: 166.0257°
revolutions per day: 14.13340236
mean anomaly at epoch: 194.1165°
orbit number at epoch: 86941

The dashed part of the orbit path shows where the satellite is in the earth's shadow,  

DLR